EDT,Max TemperatureF,Mean TemperatureF,Min TemperatureF,Max Dew PointF,MeanDew PointF,Min DewpointF,Max Humidity, Mean Humidity, Min Humidity, Max Sea Level PressureIn, Mean Sea Level PressureIn, Min Sea Level PressureIn, Max VisibilityMiles, Mean VisibilityMiles, Min VisibilityMiles, Max Wind SpeedMPH, Mean Wind SpeedMPH, Max Gust SpeedMPH,PrecipitationIn, CloudCover, Events, WindDirDegrees
2013-9-1,89,78,67,73,70,64,100,78,56,29.90,29.85,29.77,10,6,0,14,5,20,0.21,3,Fog-Rain-Thunderstorm,216
2013-9-2,89,79,68,74,70,66,100,78,55,29.87,29.83,29.78,10,7,0,10,5,,0.00,3,Fog,225
2013-9-3,89,77,65,71,69,64,93,72,50,29.95,29.85,29.78,10,8,2,12,4,16,0.00,2,Thunderstorm,315
2013-9-4,83,73,62,66,62,59,100,76,51,30.10,30.04,29.96,10,10,5,12,4,,0.00,1,,22
2013-9-5,87,74,60,67,61,56,97,67,36,30.11,30.07,30.03,10,8,2,14,4,79,0.00,0,,317
2013-9-6,81,69,57,61,57,54,90,66,42,30.20,30.14,30.10,10,10,10,13,4,,0.00,0,,43
2013-9-7,81,69,56,65,59,54,93,72,51,30.16,30.08,29.97,10,10,7,10,3,15,0.00,3,,223
2013-9-8,89,75,61,71,64,59,97,70,43,29.98,29.94,29.90,10,8,2,10,2,,0.00,0,,260
2013-9-9,85,76,67,70,68,65,97,81,65,30.17,30.11,29.99,10,8,3,15,4,,0.00,3,,55
2013-9-10,89,78,66,72,68,64,100,76,52,30.24,30.18,30.13,10,6,1,12,3,,0.00,0,,207
2013-9-11,90,79,68,70,69,67,97,81,65,30.17,30.10,30.04,10,9,5,10,4,,0.00,1,,201
2013-9-12,89,79,69,73,69,65,97,75,52,30.03,29.92,29.80,10,8,2,15,5,18,0.03,2,Rain-Thunderstorm,241
2013-9-13,84,73,62,66,57,48,87,59,31,29.92,29.80,29.75,10,10,10,16,7,22,0.00,2,,314
2013-9-14,75,64,53,54,49,47,86,64,41,30.14,30.04,29.93,10,10,10,13,4,16,0.00,2,,26
2013-9-15,80,65,49,60,54,46,93,69,45,30.25,30.18,30.12,10,10,10,10,3,17,0.00,2,,207
2013-9-16,84,72,59,64,60,57,93,70,47,30.21,30.13,30.08,10,9,6,15,5,20,0.00,4,,16
2013-9-17,75,63,51,56,52,49,96,70,44,30.36,30.28,30.22,10,10,6,14,6,20,0.00,1,,51
2013-9-18,73,60,47,56,50,45,93,69,44,30.35,30.26,30.19,10,10,10,9,2,14,0.00,1,,39
2013-9-19,75,66,57,63,58,54,93,75,57,30.19,30.14,30.08,10,10,10,7,1,10,0.00,8,,160
2013-9-20,69,67,64,66,64,62,100,92,84,30.10,30.04,29.96,10,4,0,6,0,,0.45,7,Fog-Rain,175
2013-9-21,75,70,65,70,66,63,97,88,79,29.99,29.85,29.72,10,6,0,25,4,39,0.42,8,Fog-Rain,217
2013-9-22,78,68,57,62,57,52,93,68,43,29.91,29.81,29.73,10,10,2,15,5,20,0.00,2,,9
2013-9-23,72,63,54,57,51,47,93,71,49,30.07,30.02,29.93,10,10,8,13,3,20,0.00,4,,51
2013-9-24,78,67,56,60,55,52,93,74,54,30.11,30.03,29.94,10,10,5,8,2,13,0.00,4,,77
2013-9-25,69,61,52,63,56,51,93,83,73,29.97,29.93,29.88,10,5,0,7,2,9,0.04,5,Fog-Rain,15
2013-9-26,76,65,54,61,55,48,93,66,38,30.05,29.96,29.90,10,10,8,12,4,16,0.00,4,,28
2013-9-27,76,63,50,57,53,48,96,71,46,30.20,30.13,30.06,10,10,7,12,3,15,0.00,1,,53
2013-9-28,71,61,50,56,52,49,93,73,53,30.30,30.22,30.19,10,10,10,14,4,18,0.00,4,,39
2013-9-29,74,62,50,56,51,48,96,70,44,30.19,30.12,30.04,10,10,10,10,2,16,0.00,4,,22
2013-9-30,78,64,49,58,52,47,93,70,46,30.10,30.05,29.99,10,10,7,7,1,9,0.00,0,,330